Content
SEND FEEDBACK

Daily
Averages
Monthly
Summary
China

WUHAN, CHINA


Home > Asia > China
Elevation: 75 feet     Latitude: 30 37N     Longitude: 114 08E

WEATHER
 
SELECT A DAY
Number of Records: 138,283;   Date Range: 1/29/00 - 8/31/14
 
SHARE

PRINT THIS DATA

[ ← Previous Day ]
WEATHER ALMANAC - MARCH 28, 2013
[ Next Day → ]
[ °C ]   °F
Weather ElementAverageHighLow
Temperature60.4 °F72 °F (2:00 pm)48 °F (2:00 am)
Dewpoint49.4 °F55 °F (8:00 pm)46.4 °F (1:00 am)
Humidity67.7 %96 % (2:00 am)37 % (2:00 pm)
Barometer29.95 in30.04 in (11:00 pm)29.91 in (5:00 am)
Wind Speed6.5 mph13.4 mph (8:00 am)
Weather ElementAverage
Visibility4 mi
Wind DirectionESE (108.7 °)

Weather ElementTotal
Precipitation---
Heating Degree Days5 (Base 65)
Growing Degree Days10 (Base 50)
Averaged from 31 records on March 28, 2013
WEATHER CONDITIONS BREAKOUT
WIND DIRECTION BREAKOUT
WEATHER BY HOUR - MARCH 28, 2013
[ °C ]   °F
Local TimeTemperatureDewpointHumidityBarometerVisibilityWind DirectionWind SpeedGust SpeedPrecipitationEventsConditions
1:00 AM53.6 °F46.4 °F77 %29.95 in2.5 miEast (100°)4.5 mphMist
2:00 AM48.0 °F47.0 °F96 %29.94 in9.0 miSSE (160°)2.2 mphMostly Cloudy
2:00 AM51.8 °F46.4 °F82 %29.95 in2.2 miESE (120°)6.7 mphMist
3:00 AM51.8 °F46.4 °F82 %29.92 in1.9 miEast (90°)4.5 mphMist
4:00 AM51.8 °F46.4 °F82 %29.92 in1.7 miEast (100°)8.9 mphMist
5:00 AM51.0 °F49.0 °F92 %29.91 in9.0 miSouth (180°)2.2 mphMostly Cloudy
5:00 AM50.0 °F46.4 °F87 %29.92 in0.9 miESE (110°)6.7 mphMist
6:00 AM50.0 °F48.2 °F94 %29.92 in0.8 miESE (110°)8.9 mphMist
7:00 AM50.0 °F46.4 °F87 %29.95 in0.5 miEast (90°)6.7 mphFogFog
8:00 AM56.0 °F52.0 °F83 %29.93 in9.0 miESE (110°)4.5 mphMostly Cloudy
8:00 AM53.6 °F48.2 °F82 %29.95 in0.7 miESE (110°)13.4 mphMist
9:00 AM57.2 °F50.0 °F77 %29.95 in1.2 miESE (110°)13.4 mphHaze
10:00 AM62.6 °F50.0 °F63 %29.98 inESE (110°)8.9 mphHaze
11:00 AM69.0 °F53.0 °F47 %29.98 in6.0 miEast (90°)4.5 mphClear
11:00 AM64.4 °F50.0 °F59 %29.98 in2.5 miEast (90°)6.7 mphHaze
12:00 PM68.0 °F48.2 °F49 %29.98 in3.1 miEast (90°)6.7 mphHaze
1:00 PM68.0 °F48.2 °F49 %29.95 in3.1 miNE (40°)4.5 mphHaze
2:00 PM72.0 °F51.0 °F37 %29.93 in11.0 miENE (70°)4.5 mphMostly Cloudy
2:00 PM69.8 °F46.4 °F43 %29.95 in3.1 miVariable4.5 mphHaze
3:00 PM69.8 °F48.2 °F46 %29.92 in3.1 miWest (280°)4.5 mphHaze
4:00 PM69.8 °F50.0 °F49 %29.92 in4.3 miWest (280°)6.7 mph
5:00 PM71.0 °F53.0 °F43 %29.92 in11.0 miNE (40°)4.5 mphMostly Cloudy
5:00 PM69.8 °F50.0 °F49 %29.92 in3.1 miWNW (300°)4.5 mphHaze
6:00 PM68.0 °F51.8 °F56 %29.95 in3.1 miNW (320°)4.5 mphHaze
7:00 PM66.2 °F51.8 °F60 %29.95 in3.1 miNE (40°)6.7 mphHaze
8:00 PM60.0 °F55.0 °F78 %29.97 in9.0 miNorth2.2 mphMostly Cloudy
8:00 PM62.6 °F51.8 °F68 %29.98 in2.5 miNE (50°)8.9 mphHaze
9:00 PM60.8 °F50.0 °F68 %30.01 in1.9 miNE (50°)11.2 mphHaze
10:00 PM59.0 °F48.2 °F67 %30.01 in1.9 miNE (40°)8.9 mphHaze
11:00 PM59.0 °F53.0 °F75 %30.02 in7.0 miNE (40°)6.7 mphMostly Cloudy
11:00 PM57.2 °F48.2 °F72 %30.04 in1.6 miNE (50°)8.9 mphHaze
Hourly data recorded from ZHHH, located miles away from Wuhan, China







STORIES FROM OUR PARTNERS